Weather reports worldwide

Advertisment
Ponza, Italy (16280): temperature & dewpoint: 15.01.2018 04:00:00 - 21.01.2018 04:00:00 (CET)Ponza, Italy (16280): wind speed: 15.01.2018 04:00:00 - 21.01.2018 04:00:00 (CET)Ponza, Italy (16280): wind direction: 15.01.2018 04:00:00 - 21.01.2018 04:00:00 (CET)Ponza, Italy (16280): reduced air pressure: 15.01.2018 04:00:00 - 21.01.2018 04:00:00 (CET)Ponza, Italy (16280): visibility: 15.01.2018 04:00:00 - 21.01.2018 04:00:00 (CET)Ponza, Italy (16280): sunshine duration: 15.01.2018 04:00:00 - 21.01.2018 04:00:00 (CET)
Date & Time tt [°C] td [°C] ff [km/h] ff [kn] dd ppp [hPa] vv [km] sd [min]
21.01.2018 04:00:00 - - - - - - - -
21.01.2018 03:00:00 11,4 11,1 31 17 W 1008,0 10 -
21.01.2018 02:00:00 12,0 10,9 31 17 W 1008,0 10 -
21.01.2018 01:00:00 11,8 10,1 29 16 W 1008,4 10 -
21.01.2018 00:00:00 11,8 9,4 22 12 WNW 1009,2 10 -
20.01.2018 23:00:00 11,6 8,1 24 13 W 1010,0 10 -
20.01.2018 22:00:00 11,4 7,5 21 11 W 1010,3 10 -
20.01.2018 21:00:00 10,8 7,1 21 11 W 1011,4 10 -
20.01.2018 20:00:00 10,6 7,8 28 15 WNW 1011,7 10 -
20.01.2018 19:00:00 11,6 9,9 24 13 WNW 1011,8 10 -
20.01.2018 18:00:00 12,0 8,7 28 15 WNW 1011,5 10 -
20.01.2018 17:00:00 12,2 9,0 31 17 W 1011,0 10 42
20.01.2018 16:00:00 12,4 10,3 0 0 N 1011,0 10 60
20.01.2018 15:00:00 12,6 10,3 29 16 W 1011,0 10 42
20.01.2018 14:00:00 12,6 9,6 31 17 W 1012,0 10 60
20.01.2018 13:00:00 13,0 9,1 9 5 N 1011,6 15 60
20.01.2018 12:00:00 12,8 9,4 11 6 N 1012,0 15 60
20.01.2018 11:00:00 12,2 9,8 11 6 N 1012,2 10 60
20.01.2018 10:00:00 12,6 10,7 11 6 NNW 1012,1 10 60
20.01.2018 09:00:00 11,8 10,7 16 9 N 1011,6 10 30
20.01.2018 08:00:00 11,8 11,0 13 7 N 1011,2 10 0
20.01.2018 07:00:00 12,0 10,4 13 7 N 1010,0 10 -
20.01.2018 06:00:00 11,8 10,5 11 6 NW 1009,7 10 -
20.01.2018 05:00:00 12,2 10,9 16 9 SW 1009,5 10 -
20.01.2018 04:00:00 12,0 10,6 18 10 SW 1009,5 10 -
20.01.2018 03:00:00 12,0 10,1 16 9 WSW 1010,1 10 -
20.01.2018 02:00:00 12,0 10,4 16 9 W 1010,6 10 -
20.01.2018 01:00:00 11,8 10,0 21 11 W 1010,8 10 -
20.01.2018 00:00:00 11,8 10,9 21 11 WSW 1012,0 10 -
19.01.2018 23:00:00 12,8 10,9 13 7 SSW 1012,5 10 -
19.01.2018 22:00:00 12,6 11,0 18 10 SW 1012,5 10 -
19.01.2018 21:00:00 12,2 11,1 15 8 SSW 1012,5 10 -
19.01.2018 20:00:00 12,2 11,1 11 6 SSW 1012,5 10 -
19.01.2018 19:00:00 12,0 11,1 11 6 S 1012,5 10 -
19.01.2018 18:00:00 12,0 11,2 15 8 S 1012,5 10 -
19.01.2018 17:00:00 12,4 11,3 13 7 S 1012,5 10 0
19.01.2018 16:00:00 12,6 11,0 15 8 S 1012,5 10 18
19.01.2018 15:00:00 13,0 11,6 11 6 SSW 1012,7 10 18
19.01.2018 14:00:00 13,6 11,5 13 7 SSW 1012,9 10 30
19.01.2018 13:00:00 13,2 11,6 0 0 N 1013,8 15 -
19.01.2018 12:00:00 13,4 10,8 11 6 S 1014,8 15 0
19.01.2018 11:00:00 14,0 10,2 15 8 S 1014,8 10 12
19.01.2018 10:00:00 12,0 10,1 18 10 WSW 1015,1 10 0
19.01.2018 09:00:00 12,0 9,9 22 12 WSW 1015,8 10 0
19.01.2018 08:00:00 12,4 10,0 29 16 SSW 1015,4 10 0
19.01.2018 07:00:00 12,4 9,4 34 18 SSW 1015,8 10 -
19.01.2018 06:00:00 12,0 9,4 18 10 SSW 1016,9 10 -
19.01.2018 05:00:00 12,0 9,5 29 16 WSW 1017,0 10 -
19.01.2018 04:00:00 12,4 10,1 39 21 SSW 1017,2 10 -
19.01.2018 03:00:00 12,4 10,0 37 20 WSW 1017,3 10 -
19.01.2018 02:00:00 12,2 9,9 22 12 W 1017,5 10 -
19.01.2018 01:00:00 12,0 10,1 18 10 W 1017,7 10 -
19.01.2018 00:00:00 12,0 9,9 29 16 WSW 1017,7 10 -
18.01.2018 23:00:00 12,0 10,1 15 8 WSW 1017,8 10 -
18.01.2018 22:00:00 12,0 10,1 22 12 WSW 1017,9 10 -
18.01.2018 21:00:00 11,4 10,1 22 12 WSW 1018,4 10 -
18.01.2018 20:00:00 11,6 8,8 29 16 W 1018,3 10 -
18.01.2018 19:00:00 11,4 7,7 34 18 W 1018,5 10 -
18.01.2018 18:00:00 11,4 7,5 0 0 N 1018,6 10 -
18.01.2018 17:00:00 11,6 7,9 18 10 W 1018,7 10 -
18.01.2018 16:00:00 11,8 8,1 18 10 WSW 1018,5 10 0
18.01.2018 15:00:00 12,0 8,1 22 12 WSW 1019,1 20 30
18.01.2018 14:00:00 13,0 7,9 9 5 WNW 1019,1 30 24
18.01.2018 13:00:00 13,0 6,8 15 8 WNW 1019,4 30 36
18.01.2018 12:00:00 13,6 6,7 15 8 WNW 1020,1 40 36
18.01.2018 11:00:00 12,8 3,7 13 7 WNW 1020,2 40 60
18.01.2018 10:00:00 10,8 1,6 15 8 NW 1019,8 40 60
18.01.2018 09:00:00 10,4 0,4 16 9 WNW 1019,4 30 60
18.01.2018 08:00:00 10,2 0,2 21 11 WNW 1017,5 30 0
18.01.2018 07:00:00 10,0 -0,5 26 14 WNW 1017,6 30 -
18.01.2018 06:00:00 11,0 1,0 28 15 WNW 1017,4 15 -
18.01.2018 05:00:00 11,0 1,0 29 16 WNW 1017,3 15 -
18.01.2018 04:00:00 11,2 0,9 29 16 WNW 1016,2 15 -
18.01.2018 03:00:00 11,6 1,5 37 20 WNW 1016,2 10 -
18.01.2018 02:00:00 11,8 1,4 35 19 WNW 1015,7 10 -
18.01.2018 01:00:00 12,0 3,3 42 23 WNW 1015,2 10 -
18.01.2018 00:00:00 12,2 3,7 41 22 WNW 1014,1 10 -
17.01.2018 23:00:00 12,4 3,6 37 20 WNW 1013,1 10 -
17.01.2018 22:00:00 12,6 5,5 42 23 NW 1012,1 10 -
17.01.2018 21:00:00 13,0 5,7 41 22 WNW 1010,3 10 -
17.01.2018 20:00:00 13,0 5,9 63 34 WNW 1007,2 10 -
17.01.2018 19:00:00 13,0 5,9 59 32 WNW 1005,9 10 -
17.01.2018 18:00:00 13,0 5,9 57 31 WNW 1005,2 10 -
17.01.2018 17:00:00 13,4 6,3 55 30 WNW 1004,9 8 0
17.01.2018 16:00:00 13,0 7,2 57 31 WNW 1001,9 8 36
17.01.2018 15:00:00 12,8 8,7 59 32 W 1001,8 8 0
17.01.2018 14:00:00 14,6 10,2 52 28 W 1001,7 7 60
17.01.2018 13:00:00 14,6 10,8 55 30 W 1001,7 8 60
17.01.2018 12:00:00 14,6 11,0 54 29 W 1002,4 10 60
17.01.2018 11:00:00 14,4 11,4 46 25 W 1002,7 10 60
17.01.2018 10:00:00 14,4 11,7 44 24 W 1003,8 10 60
17.01.2018 09:00:00 14,4 11,7 48 26 W 1004,3 10 36
17.01.2018 08:00:00 14,0 11,2 46 25 W 1004,8 10 0
17.01.2018 07:00:00 14,0 11,2 48 26 W 1004,8 10 -
17.01.2018 06:00:00 13,6 10,2 46 25 SW 1005,4 10 -
17.01.2018 05:00:00 13,4 10,9 44 24 SW 1006,9 10 -
17.01.2018 04:00:00 13,0 11,1 41 22 SW 1008,9 10 -
17.01.2018 03:00:00 13,0 9,6 42 23 SW 1009,9 10 -
17.01.2018 02:00:00 13,0 10,0 41 22 WSW 1010,0 10 -
17.01.2018 01:00:00 13,0 10,9 39 21 SW 1010,9 10 -
17.01.2018 00:00:00 13,0 10,7 35 19 WSW 1011,0 10 -
16.01.2018 23:00:00 13,0 10,9 35 19 WSW 1012,0 10 -
16.01.2018 22:00:00 13,0 11,2 35 19 W 1012,0 10 -
16.01.2018 21:00:00 13,0 11,4 35 19 W 1012,7 10 -
16.01.2018 20:00:00 13,2 12,1 39 21 W 1013,0 10 -
16.01.2018 19:00:00 13,2 11,6 39 21 W 1013,0 10 -
16.01.2018 18:00:00 13,0 12,2 37 20 W 1013,4 10 -
16.01.2018 17:00:00 12,8 11,5 39 21 W 1014,1 10 0
16.01.2018 16:00:00 12,8 11,5 37 20 W 1014,7 10 0
16.01.2018 15:00:00 13,0 11,4 37 20 WNW 1014,8 10 0
16.01.2018 14:00:00 12,8 11,2 35 19 WNW 1015,1 10 0
16.01.2018 13:00:00 12,8 11,0 35 19 W 1016,1 10 0
16.01.2018 12:00:00 13,0 9,4 37 20 WNW 1016,6 10 0
16.01.2018 11:00:00 12,8 10,2 35 19 W 1017,9 15 0
16.01.2018 10:00:00 12,4 8,5 34 18 W 1017,6 15 0
16.01.2018 09:00:00 11,4 8,4 34 18 W 1017,4 10 12
16.01.2018 08:00:00 11,4 8,4 34 18 W 1017,3 15 12
16.01.2018 07:00:00 11,4 9,0 31 17 W 1017,2 10 -
16.01.2018 06:00:00 11,4 9,0 28 15 W 1017,5 15 -
16.01.2018 05:00:00 11,2 9,1 29 16 W 1018,3 15 -
16.01.2018 04:00:00 11,8 9,4 26 14 W 1019,2 10 -
16.01.2018 03:00:00 11,8 9,4 22 12 W 1019,9 20 -
16.01.2018 02:00:00 - - - - - - - -
16.01.2018 01:00:00 12,0 10,4 21 11 W 1021,3 15 -
16.01.2018 00:00:00 12,0 10,4 21 11 W 1021,3 15 -
15.01.2018 23:00:00 11,8 9,9 21 11 W 1021,3 15 -
15.01.2018 22:00:00 12,0 10,6 15 8 SSW 1021,0 15 -
15.01.2018 21:00:00 11,8 10,2 15 8 SSW 1021,2 20 -
15.01.2018 20:00:00 11,6 10,0 15 8 SSW 1021,2 20 -
15.01.2018 19:00:00 11,8 10,2 16 9 SSW 1020,7 20 -
15.01.2018 18:00:00 12,0 10,4 21 11 S 1020,4 15 -
15.01.2018 17:00:00 12,2 10,4 18 10 SSE 1020,2 20 0
15.01.2018 16:00:00 12,8 10,5 21 11 SSE 1020,2 20 60
15.01.2018 15:00:00 13,0 10,5 16 9 S 1020,4 25 60
15.01.2018 14:00:00 13,8 11,3 18 10 ESE 1020,8 15 60
15.01.2018 13:00:00 12,8 11,0 8 4 E 1021,3 10 60
15.01.2018 12:00:00 12,6 10,7 15 8 E 1021,4 10 60
15.01.2018 11:00:00 12,2 10,6 15 8 E 1022,1 10 60
15.01.2018 10:00:00 12,2 10,9 16 9 E 1021,4 10 54
15.01.2018 09:00:00 11,4 10,0 15 8 E 1020,8 10 30
15.01.2018 08:00:00 10,0 8,9 13 7 E 1020,6 10 0
15.01.2018 07:00:00 9,8 8,6 8 4 E 1020,5 10 -
15.01.2018 06:00:00 9,8 8,7 11 6 ESE 1020,3 10 -
15.01.2018 05:00:00 9,8 8,6 11 6 E 1020,5 10 -
15.01.2018 04:00:00 9,8 7,9 9 5 ESE 1020,8 10 -

tt = temperature
td = dewpoint
ff = wind speed
dd = wind direction
ppp = reduced air pressure
vv = visibility
sd = sunshine duration

Next stations